Regional Weather Roundup
Issued by NWS Cleveland, OH

Home | Current Version | Previous Version | Graphics & Text | Print | Product List | Glossary On
Versions: 1 2 3 4 5 6 7 8 9 10 11 12 13 14 15 16 17 18 19 20 21 22 23 24 25 26 27 28 29 30 31 32 33 34 35 36 37 38 39 40 41 42 43 44 45 46 47 48 49 50
000
ASUS41 KCLE 210912
RWRCLE
OHIO REGIONAL WEATHER ROUNDUP
NATIONAL WEATHER SERVICE WILMINGTON, OH
400 AM EST TUE FEB 21 2017

NOTE: "FAIR" INDICATES FEW OR NO CLOUDS BELOW 12,000 FEET WITH NO
SIGNIFICANT WEATHER AND/OR OBSTRUCTIONS TO VISIBILITY.

OHZ001>008-015>018-024>027-034-035-043-044-211000-
   NORTHWEST OHIO

CITY           SKY/WX    TMP DP  RH WIND       PRES   REMARKS
DEFIANCE       FAIR      39  34  82 CALM      29.99F
FINDLAY        FAIR      50  38  63 SE10      30.00F
TOLEDO EXPRESS FAIR      36  34  92 E3        30.00F
TOLEDO EXEC    FAIR      36  34  92 CALM      30.01F
LIMA           FAIR      51  41  68 S12       30.00F
$$

OHZ009>014-019>023-028>033-038-089-211000-
   NORTHEAST OHIO

CITY           SKY/WX    TMP DP  RH WIND       PRES   REMARKS
CLE-HOPKINS    CLOUDY    50  31  48 S9        30.06F
CLE-LAKEFRONT  FAIR      48  31  51 SE5       30.02F
CUY CO. ARPT   NOT AVBL
LORAIN-ELYRIA  FAIR      45  33  63 S7        30.03F
ASHTABULA      FAIR      44  31  60 SE7       30.09F
AKRON-CANTON   CLOUDY    49  31  49 SE10      30.06F
WOOSTER        FAIR      40  35  83 CALM      30.05F
MANSFIELD      FAIR      48  36  63 S9        30.03F
YOUNGSTOWN     CLOUDY    47  31  53 E12       30.08F
$$

OHZ042-051>053-060>062-070>072-077>081-211000-
  SOUTHWEST OHIO

CITY           SKY/WX    TMP DP  RH WIND       PRES   REMARKS
CINC-COVINGTON CLOUDY    50  40  68 SE6       30.02S
CINC-LUNKEN    FAIR      43  42  97 CALM      30.04F
HAMILTON       FAIR      42  39  89 CALM      30.03F
DAYTON         CLOUDY    50  40  68 S9        30.02F
WRIGHT-PAT AFB FAIR      45  44  96 SE5       30.02F
DAYTON GENERAL FAIR      50  40  68 S6        30.01F
WILMINGTON     FAIR      49  40  71 SE5       30.03F
$$

OHZ036-037-039>041-045>050-054>059-063>069-073>076-082>088-211000-
  CENTRAL AND SOUTHEAST OHIO

CITY           SKY/WX    TMP DP  RH WIND       PRES   REMARKS
COLUMBUS       CLOUDY    47  37  68 E5        30.03F
OSU AIRPORT    FAIR      49  39  68 SE7       30.04F
BOLTON FIELD   FAIR      43  40  87 CALM      30.04F
RICKENBACK AFB FAIR      43  40  89 NE3       30.04F
NEWARK         FAIR      40  37  89 CALM      30.05F
MARION         FAIR      50  36  58 S10       30.03F
LANCASTER      FAIR      42  39  89 CALM      30.06S FOG
ZANESVILLE     FAIR      44  37  76 CALM      30.05F
NEW PHILLY     FAIR      46  36  68 SE3       30.06F
$$



USA.gov is the U.S. government's official web portal to all federal, state and local government web resources and services.